Regional Weather Roundup
Issued by NWS

Home | Current Version | Previous Version | Text Only | Print | Product List | Glossary Off
Versions: 1 2 3 4 5 6 7 8 9 10 11 12 13 14 15 16 17 18 19 20 21 22 23 24 25 26 27 28 29 30 31 32 33 34 35 36 37 38 39 40 41 42 43 44 45 46 47 48 49 50

000
ASUS43 KFSD 020202
RWRSD

WEATHER ROUNDUP FOR SOUTH DAKOTA
NATIONAL WEATHER SERVICE SIOUX FALLS SD
900 PM CDT TUE SEP 01 2015

NOTE: "FAIR" INDICATES FEW OR NO CLOUDS BELOW 12,000 FEET WITH NO
SIGNIFICANT WEATHER AND/OR OBSTRUCTIONS TO VISIBILITY.


SDZ001>005-009-010-012>017-020300-
NORTHWEST AND NORTH CENTRAL SOUTH DAKOTA

CITY           SKY/WX    TMP DP  RH WIND       PRES   REMARKS
BUFFALO          N/A     80  55  42 E9        29.78R
FAITH            N/A     80  54  40 SW3       29.82R
MOBRIDGE       CLEAR     77  66  68 SE7       29.77R
$$

SDZ012>016-024>037-041>051-057-063-072>074-020300-
SOUTHWEST AND SOUTH CENTRAL SOUTH DAKOTA

CITY           SKY/WX    TMP DP  RH WIND       PRES   REMARKS
RAPID CTY ARPT CLEAR     69  56  62 CALM      29.86R
PIERRE         CLEAR     78  65  63 SE16      29.77R
CUSTER         CLEAR     68  49  50 NE6       30.03R
ELLSWORTH AFB  CLEAR     79  56  46 E2        29.86R
PHILIP         CLEAR     71  64  78 N9        29.78R
PINE RIDGE     CLEAR     71  49  45 E7        29.86R
WINNER         FAIR      77  65  66 SE10      29.81S
$$

SDZ004>011-016>023-039-040-020300-
NORTHEAST SOUTH DAKOTA

CITY           SKY/WX    TMP DP  RH WIND       PRES   REMARKS
ABERDEEN       CLEAR     72  67  84 SE5       29.83R
WATERTOWN      CLEAR     73  66  78 S9        29.87S
BROOKINGS      MOCLDY    72  64  78 SE12      29.90R
$$

SDZ017-020-022-023-036>040-048>070-020300-
SOUTHEAST SOUTH DAKOTA

CITY           SKY/WX    TMP DP  RH WIND       PRES   REMARKS
SIOUX FALLS    MOCLDY    73  71  93 NE7       29.87S
HURON          CLEAR     73  70  90 SE7       29.82S
CHAMBERLAIN    CLEAR     71  69  92 E6        29.82R
MITCHELL       CLEAR     72  70  93 SE5       29.84R
YANKTON        CLEAR     79  72  78 SE7       29.83R
$$

ABBREVIATIONS USED IN REMARKS
   TC - TEMPERATURE IN CELSIUS
  WCI - WIND CHILL INDEX
   HX - HEAT INDEX
  VSB - VISIBILITY



USA.gov is the U.S. government's official web portal to all federal, state and local government web resources and services.